TimeCST,TemperatureF,Dew PointF,Humidity,Sea Level PressureIn,VisibilityMPH,Wind Direction,Wind SpeedMPH,Gust SpeedMPH,PrecipitationIn,Events,Conditions,WindDirDegrees,DateUTC
12:55 AM,38.5,29.3,70,30.32,10.0,ESE,4.6,-,N/A,,Partly Cloudy,110,2012-11-14 06:55:00
1:55 AM,30.7,27.0,86,30.32,10.0,ESE,3.5,-,N/A,,Scattered Clouds,110,2012-11-14 07:55:00
2:55 AM,30.9,27.1,86,30.33,10.0,East,3.5,-,N/A,,Clear,100,2012-11-14 08:55:00
3:55 AM,27.9,25.5,91,30.32,10.0,Calm,Calm,-,N/A,,Clear,0,2012-11-14 09:55:00
4:55 AM,26.2,24.1,92,30.33,10.0,ESE,3.5,-,N/A,,Clear,120,2012-11-14 10:55:00
5:55 AM,25.5,23.9,94,30.33,10.0,East,3.5,-,N/A,,Clear,100,2012-11-14 11:55:00
6:55 AM,26.1,24.3,93,30.33,10.0,East,5.8,-,N/A,,Clear,100,2012-11-14 12:55:00
7:55 AM,27.3,25.0,91,30.35,10.0,East,4.6,-,N/A,,Clear,100,2012-11-14 13:55:00
8:55 AM,36.7,30.2,77,30.34,10.0,SE,4.6,-,N/A,,Clear,140,2012-11-14 14:55:00
9:55 AM,44.4,29.7,56,30.33,10.0,South,5.8,-,N/A,,Clear,180,2012-11-14 15:55:00
10:55 AM,49.8,29.5,46,30.32,10.0,South,10.4,-,N/A,,Clear,190,2012-11-14 16:55:00
11:55 AM,53.2,28.6,39,30.29,10.0,South,10.4,-,N/A,,Clear,190,2012-11-14 17:55:00
12:55 PM,57.0,27.9,33,30.26,10.0,SSW,12.7,-,N/A,,Clear,210,2012-11-14 18:55:00
1:55 PM,58.5,25.5,28,30.24,10.0,South,12.7,-,N/A,,Clear,190,2012-11-14 19:55:00
2:55 PM,58.8,23.4,26,30.22,10.0,SSW,12.7,-,N/A,,Clear,200,2012-11-14 20:55:00
3:55 PM,57.7,25.0,28,30.22,10.0,South,8.1,-,N/A,,Clear,180,2012-11-14 21:55:00
4:55 PM,52.2,25.3,35,30.22,10.0,South,4.6,-,N/A,,Clear,170,2012-11-14 22:55:00
5:55 PM,47.5,26.2,44,30.22,10.0,SSE,5.8,-,N/A,,Clear,160,2012-11-14 23:55:00
6:55 PM,42.8,29.3,59,30.22,10.0,ESE,5.8,-,N/A,,Clear,110,2012-11-15 00:55:00
7:55 PM,46.4,28.6,50,30.22,10.0,SE,6.9,-,N/A,,Clear,140,2012-11-15 01:55:00
8:55 PM,46.9,28.4,49,30.22,10.0,South,8.1,-,N/A,,Clear,170,2012-11-15 02:55:00
9:55 PM,46.0,29.3,52,30.22,10.0,South,10.4,-,N/A,,Clear,170,2012-11-15 03:55:00
10:55 PM,47.1,28.8,49,30.22,10.0,South,8.1,-,N/A,,Partly Cloudy,180,2012-11-15 04:55:00
11:55 PM,45.5,29.1,53,30.21,10.0,South,9.2,-,N/A,,Partly Cloudy,170,2012-11-15 05:55:00